Regional Weather Roundup
Issued by NWS

Home | Current Version | Previous Version | Graphics & Text | Print | Product List | Glossary On
Versions: 1 2 3 4 5 6 7 8 9 10 11 12 13 14 15 16 17 18 19 20 21 22 23 24 25 26 27 28 29 30 31 32 33 34 35 36 37 38 39 40 41 42 43 44 45 46 47 48 49 50
000
ASUS43 KLOT 222008
RWRIL

ILLINOIS REGIONAL WEATHER ROUNDUP
NATIONAL WEATHER SERVICE CHICAGO/ROMEOVILLE IL
200 PM CST WED FEB 22 2017

NOTE: "FAIR" INDICATES FEW OR NO CLOUDS BELOW 12,000 FEET WITH NO
SIGNIFICANT WEATHER AND/OR OBSTRUCTIONS TO VISIBILITY.

* THESE STATIONS ARE NOT UNDER NWS QUALITY CONTROL. THEY ALSO MAY NOT
  REPORT WEATHER SUCH AS PRECIPITATION OR FOG.

ILZ001-002-007-009-015-016-024-222100-
NORTHWEST ILLINOIS

CITY           SKY/WX    TMP DP  RH WIND       PRES   REMARKS
MOLINE         SUNNY     73  52  47 S16       29.60F
STERLING*      SUNNY     69  55  60 VRB6      29.65F
SAVANNA*       SUNNY     71  50  47 S17       29.61F
$$

ILZ003-004-008-010-011-017-018-222100-
NORTH CENTRAL ILLINOIS

CITY           SKY/WX    TMP DP  RH WIND       PRES   REMARKS
ROCKFORD       MOSUNNY   69  52  54 S15       29.65F
FREEPORT*      SUNNY     67  52  58 S16G22    29.63F
ROCHELLE*      SUNNY     68  53  60 SW18      29.66F
DE KALB*       SUNNY     67  55  64 SW15G24   29.67F
PERU*          SUNNY     65  53  63 S13G20    29.68F
$$

ILZ005-006-012>014-019>023-222100-
NORTHEAST ILLINOIS

CITY           SKY/WX    TMP DP  RH WIND       PRES   REMARKS
CHICAGO-OHARE  MOSUNNY   65  53  65 SW18G24   29.67F
CHICAGO-MIDWAY PTSUNNY   62  54  74 S16G23    29.69F
AURORA         MOSUNNY   66  54  65 S10G22    29.68F
LANSING*       CLOUDY    60  58  91 SW13      29.73F FOG
JOLIET*        PTSUNNY   65  58  77 S13G18    29.70F
WAUKEGAN       SUNNY     68  51  54 SW17      29.64F
DUPAGE AIRPORT SUNNY     66  53  63 S15       29.67F
KANKAKEE*      CLOUDY    64  56  75 S10       29.74F
WHEELING       SUNNY     65  52  62 SW14      29.67F
MORRIS*        MOSUNNY   65  55  70 SW10      29.69F
ROMEOVILLE*    PTSUNNY   63  58  86 S16       29.70F
NORTHERLY ISL    N/A     61  53  75 SW13        N/A
$$

LMZ740>746-222100-
SOUTHERN LAKE MICHIGAN

STATION/POSITION SKY/WX   TEMP    WIND        PRES    VSBY  WAVE
                          AIR SEA DIR/SP/G                  HT/PER
                          (F)     (DEG/KT/KT) (MB)    (MI)  (FT/S)
HARRISON CRIB              58     190/ 19/ 21   N/A
BURNHAM HARBOR             62     200/ 11/ 16   N/A
CALUMET HARBOR             59     200/ 15/ 20 1005.5F
BURNS HARBOR               59     210/ 13/ 23 1007.5F
MICHIGAN CITY              62     190/ 15/ 19   N/A
$$

ILZ025>027-034>036-040-047-049-050-058-095>099-222100-
WEST-CENTRAL ILLINOIS

CITY           SKY/WX    TMP DP  RH WIND       PRES   REMARKS
QUINCY         SUNNY     67  56  67 S18G26    29.69F
GALESBURG*     SUNNY     68  55  64 S16       29.66F
MACOMB*        SUNNY     68  57  67 SW20G29   29.70F
JACKSONVILLE*  CLOUDY    61  56  84 S9G17     29.74F
PITTSFIELD*    MOSUNNY   66  59  77 S10       29.73F
$$

ILZ028>032-037-038-041>044-048-051>054-059>061-222100-
CENTRAL ILLINOIS

CITY           SKY/WX    TMP DP  RH WIND       PRES   REMARKS
PONTIAC        MOSUNNY   65  59  81 SW17      29.72F
BLOOMINGTON    PTSUNNY   66  57  72 SW16      29.73F
DECATUR        MOSUNNY   65  55  70 SW16      29.75F
PEORIA         MOSUNNY   63  56  78 S15       29.70F
LACON*         SUNNY     65  55  70 SW10      29.68F
LINCOLN*       MOSUNNY   68  58  72 S10       29.73F
SPRINGFIELD    CLOUDY    62  56  80 SW12      29.75F HAZE
TAYLORVILLE    MOSUNNY   65  56  74 S12       29.75F
$$

ILZ033-039-045-046-055>057-062-063-222100-
EAST-CENTRAL ILLINOIS

CITY           SKY/WX    TMP DP  RH WIND       PRES   REMARKS
CHAMPAIGN      MOSUNNY   69  55  60 SW13G22   29.75F
RANTOUL*       PTSUNNY   71  57  61 SW17      29.74F
MATTOON        PTSUNNY   67  57  70 SW10      29.75F
PARIS*         CLOUDY    67  58  72 SW14      29.77F
$$

ILZ079-100>102-222100-
SOUTHWEST ILLINOIS

CITY           SKY/WX    TMP DP  RH WIND       PRES   REMARKS
ALTON          MOSUNNY   66  57  72 W8        29.76F
BELLEVILLE     MOSUNNY   74  58  57 VRB5      29.73F
CAHOKIA*       SUNNY     74  54  49 VRB6      29.73F
SPARTA*        MOSUNNY   72  56  56 S13       29.78F
$$

ILZ064>066-069>071-074>076-080>082-084>086-088>090-092>094-222100-
SOUTH-CENTRAL ILLINOIS

CITY           SKY/WX    TMP DP  RH WIND       PRES   REMARKS
CARBONDALE     SUNNY     72  57  59 S14G22    29.78F
CAIRO*         SUNNY     68  57  67 S9        29.81F
EFFINGHAM*     CLOUDY    71  58  64 S9G16     29.77F
MARION         MOSUNNY   73  55  53 S12G17    29.80F
MT. VERNON     MOSUNNY   70  56  61 SW14      29.78F
CENTRALIA*     PTSUNNY   73  58  60 S16       29.76F
SALEM*         PTSUNNY   71  56  59 S10       29.77S
METROPOLIS*    MOSUNNY   69  57  64 S6        29.82F
$$

ILZ067-068-072-073-078-083-087-091-222100-
SOUTHEAST ILLINOIS

CITY           SKY/WX    TMP DP  RH WIND       PRES   REMARKS
LAWRENCEVILLE  MOSUNNY   71  58  63 S16       29.78F
FLORA*         MOSUNNY   71  58  63 S15       29.77F
FAIRFIELD*     SUNNY     69  57  63 S9        29.77F
HARRISBURG*    MOSUNNY   71  58  64 S15       29.80F
ROBINSON*      MOSUNNY   70  57  62 SW13      29.78F
CARMI*         MOSUNNY   69  58  67 S14       29.79F
$$

ABBREVIATIONS USED IN REMARKS
   TC - TEMPERATURE IN CELSIUS
  WCI - WIND CHILL INDEX
   HX - HEAT INDEX
  VSB - VISIBILITY
$$





USA.gov is the U.S. government's official web portal to all federal, state and local government web resources and services.